Terug naar catalogus

STARLINK-35982

ActiefCommunicatieVLEO
NORAD 66828·PAYLOAD·🇺🇸 United States

Gelanceerd Dec 2, 2025 vanaf Vandenberg Space Force Base

Loading…

Volgende Passages (komende 24 uur)

TLE

VersSource: CelesTrak SupGP

Epoch: Sep 14, 2026, 21:39 UTC

1 66828C 25280H   26257.90256944  .00008231  00000+0  68964-3 0  2574
2 66828  70.0010 217.4940 0003445 261.7456 158.9669 14.98335463    15

Volg STARLINK-35982 in realtime met AllMySat

Download on the App Store